| time (UTC) | temp F | wind direction | speed MPH | gust MPH | rain 1hr in | rain 24hr in | rain mn in | humidity % | barometer mb |
| 20260505022503 | 58 | 10 | 6.0 | 17.0 | 0.00 | 0.01 | 0.01 | 42 | 1006.5 |
| 20260505022003 | 58 | 4 | 4.0 | 17.0 | 0.00 | 0.01 | 0.01 | 42 | 1006.5 |
| 20260505021503 | 58 | 360 | 4.0 | 13.0 | 0.00 | 0.01 | 0.01 | 42 | 1006.5 |
| 20260505021003 | 58 | 21 | 5.0 | 15.0 | 0.00 | 0.01 | 0.01 | 42 | 1006.2 |
| 20260505020503 | 58 | 29 | 6.0 | 17.0 | 0.00 | 0.01 | 0.01 | 42 | 1006.1 |
| 20260505020003 | 58 | 15 | 5.0 | 17.0 | 0.00 | 0.01 | 0.01 | 42 | 1006.2 |
| 20260505015503 | 59 | 10 | 6.0 | 16.0 | 0.00 | 0.01 | 0.01 | 43 | 1006.3 |
| 20260505015003 | 59 | 8 | 6.0 | 16.0 | 0.00 | 0.01 | 0.01 | 42 | 1006.3 |
| 20260505014503 | 60 | 18 | 6.0 | 14.0 | 0.00 | 0.01 | 0.01 | 41 | 1006.1 |
| 20260505014213 | 60 | 20 | 5.0 | 14.0 | 0.00 | 0.01 | 0.01 | 40 | 1006.0 |
| 20260505013503 | 60 | 14 | 6.0 | 17.0 | 0.00 | 0.01 | 0.01 | 39 | 1005.6 |
| 20260505013213 | 60 | 16 | 6.0 | 17.0 | 0.00 | 0.01 | 0.01 | 39 | 1005.7 |
| 20260505012503 | 61 | 15 | 6.0 | 13.0 | 0.00 | 0.01 | 0.01 | 38 | 1005.4 |
| 20260505012003 | 61 | 10 | 5.0 | 13.0 | 0.00 | 0.01 | 0.01 | 38 | 1005.6 |
| 20260505011003 | 62 | 355 | 6.0 | 15.0 | 0.00 | 0.01 | 0.01 | 37 | 1005.5 |
| 20260505010713 | 62 | 355 | 6.0 | 15.0 | 0.00 | 0.01 | 0.01 | 36 | 1005.5 |
| 20260505010004 | 63 | 359 | 5.0 | 13.0 | 0.00 | 0.01 | 0.01 | 35 | 1005.1 |
| 20260505005503 | 64 | 3 | 5.0 | 11.0 | 0.00 | 0.01 | 0.01 | 34 | 1005.1 |
| 20260505005004 | 64 | 1 | 6.0 | 15.0 | 0.00 | 0.01 | 0.01 | 35 | 1005.0 |
| 20260505004503 | 65 | 16 | 6.0 | 15.0 | 0.00 | 0.01 | 0.01 | 34 | 1004.8 |
| 20260505004212 | 65 | 21 | 6.0 | 14.0 | 0.00 | 0.01 | 0.01 | 34 | 1004.8 |
| 20260505003504 | 66 | 2 | 4.0 | 12.0 | 0.00 | 0.01 | 0.01 | 33 | 1004.8 |
| 20260505003004 | 66 | 359 | 5.0 | 16.0 | 0.00 | 0.01 | 0.01 | 34 | 1004.8 |
| 20260505002503 | 67 | 16 | 6.0 | 16.0 | 0.00 | 0.01 | 0.01 | 33 | 1004.6 |
| 20260505002003 | 68 | 29 | 5.0 | 16.0 | 0.00 | 0.01 | 0.01 | 34 | 1004.4 |
| 20260505001503 | 68 | 23 | 5.0 | 15.0 | 0.00 | 0.01 | 0.01 | 33 | 1004.2 |
| 20260505001003 | 68 | 24 | 5.0 | 15.0 | 0.00 | 0.01 | 0.01 | 33 | 1004.3 |
| 20260505000503 | 69 | 20 | 4.0 | 15.0 | 0.00 | 0.01 | 0.01 | 33 | 1004.3 |
| 20260505000003 | 69 | 5 | 3.0 | 15.0 | 0.00 | 0.01 | 0.01 | 33 | 1004.2 |
| 20260504235713 | 69 | 3 | 3.0 | 12.0 | 0.00 | 0.01 | 0.01 | 32 | 1004.1 |
| 20260504235003 | 69 | 10 | 4.0 | 14.0 | 0.00 | 0.01 | 0.01 | 32 | 1004.3 |
| 20260504234503 | 70 | 5 | 4.0 | 12.0 | 0.00 | 0.01 | 0.01 | 32 | 1004.1 |
| 20260504234003 | 70 | 352 | 4.0 | 19.0 | 0.00 | 0.01 | 0.01 | 32 | 1004.0 |
| 20260504233504 | 70 | 3 | 4.0 | 19.0 | 0.00 | 0.01 | 0.01 | 31 | 1004.1 |
| 20260504233214 | 71 | 6 | 5.0 | 19.0 | 0.00 | 0.01 | 0.01 | 31 | 1004.0 |
| 20260504232503 | 71 | 23 | 4.0 | 15.0 | 0.00 | 0.01 | 0.01 | 31 | 1003.9 |
| 20260504232003 | 71 | 358 | 5.0 | 16.0 | 0.00 | 0.01 | 0.01 | 33 | 1003.7 |
| 20260504231503 | 71 | 359 | 6.0 | 16.0 | 0.00 | 0.01 | 0.01 | 30 | 1003.6 |
| 20260504231214 | 72 | 360 | 5.0 | 14.0 | 0.00 | 0.01 | 0.01 | 31 | 1003.5 |
| 20260504230503 | 73 | 332 | 4.0 | 22.0 | 0.00 | 0.01 | 0.01 | 29 | 1003.4 |
| 20260504230003 | 73 | 331 | 5.0 | 22.0 | 0.00 | 0.01 | 0.01 | 29 | 1003.4 |
| 20260504225503 | 74 | 345 | 4.0 | 15.0 | 0.00 | 0.01 | 0.01 | 30 | 1003.3 |
| 20260504225003 | 74 | 3 | 4.0 | 13.0 | 0.00 | 0.01 | 0.01 | 31 | 1003.1 |
| 20260504224712 | 74 | 359 | 4.0 | 13.0 | 0.00 | 0.01 | 0.01 | 28 | 1003.0 |
| 20260504224003 | 74 | 357 | 6.0 | 17.0 | 0.00 | 0.01 | 0.01 | 29 | 1002.8 |
| 20260504223712 | 74 | 13 | 5.0 | 17.0 | 0.00 | 0.01 | 0.01 | 30 | 1002.8 |
| 20260504223003 | 75 | 356 | 5.0 | 13.0 | 0.00 | 0.01 | 0.01 | 29 | 1002.7 |
| 20260504222712 | 75 | 340 | 5.0 | 17.0 | 0.00 | 0.01 | 0.01 | 32 | 1002.6 |
| 20260504222003 | 76 | 343 | 5.0 | 17.0 | 0.00 | 0.01 | 0.01 | 28 | 1002.5 |
| 20260504221503 | 76 | 334 | 5.0 | 18.0 | 0.00 | 0.01 | 0.01 | 29 | 1002.3 |
| 20260504221003 | 77 | 331 | 4.0 | 18.0 | 0.00 | 0.01 | 0.01 | 28 | 1002.2 |
| 20260504220503 | 77 | 349 | 4.0 | 14.0 | 0.00 | 0.01 | 0.01 | 31 | 1002.2 |
| 20260504220003 | 77 | 351 | 4.0 | 14.0 | 0.00 | 0.01 | 0.01 | 30 | 1001.9 |
| 20260504215503 | 78 | 336 | 3.0 | 10.0 | 0.00 | 0.01 | 0.01 | 29 | 1002.0 |
| 20260504215213 | 78 | 336 | 4.0 | 10.0 | 0.00 | 0.01 | 0.01 | 28 | 1002.0 |
| 20260504214503 | 78 | 346 | 4.0 | 12.0 | 0.00 | 0.01 | 0.01 | 29 | 1001.8 |
| 20260504214003 | 78 | 10 | 3.0 | 12.0 | 0.01 | 0.01 | 0.01 | 30 | 1001.9 |
| 20260504213712 | 78 | 10 | 3.0 | 11.0 | 0.01 | 0.01 | 0.01 | 29 | 1001.9 |
| 20260504213008 | 78 | 343 | 4.0 | 13.0 | 0.01 | 0.01 | 0.01 | 31 | 1001.9 |
| 20260504212503 | 78 | 327 | 4.0 | 13.0 | 0.01 | 0.01 | 0.01 | 33 | 1001.9 |
| 20260504212003 | 78 | 333 | 3.0 | 9.0 | 0.01 | 0.01 | 0.01 | 31 | 1001.9 |
| 20260504211714 | 78 | 304 | 4.0 | 9.0 | 0.01 | 0.01 | 0.01 | 34 | 1001.7 |
| 20260504211003 | 78 | 321 | 4.0 | 10.0 | 0.01 | 0.01 | 0.01 | 30 | 1001.7 |
| 20260504210503 | 78 | 322 | 4.0 | 10.0 | 0.01 | 0.01 | 0.01 | 34 | 1001.6 |
| 20260504210213 | 78 | 319 | 4.0 | 10.0 | 0.01 | 0.01 | 0.01 | 34 | 1001.7 |
| 20260504205714 | 78 | 316 | 3.0 | 10.0 | 0.01 | 0.01 | 0.01 | 35 | 1001.7 |
| 20260504205003 | 78 | 339 | 3.0 | 11.0 | 0.01 | 0.01 | 0.01 | 34 | 1001.6 |
| 20260504204503 | 79 | 324 | 4.0 | 13.0 | 0.01 | 0.01 | 0.01 | 36 | 1001.6 |
| 20260504204003 | 79 | 317 | 4.0 | 13.0 | 0.00 | 0.00 | 0.00 | 32 | 1001.6 |
| 20260504203503 | 79 | 335 | 4.0 | 9.0 | 0.00 | 0.00 | 0.00 | 35 | 1001.6 |
| 20260504203003 | 79 | 359 | 5.0 | 12.0 | 0.00 | 0.00 | 0.00 | 37 | 1001.5 |
| 20260504202504 | 79 | 354 | 4.0 | 12.0 | 0.00 | 0.00 | 0.00 | 38 | 1001.5 |
| 20260504202212 | 79 | 350 | 4.0 | 12.0 | 0.00 | 0.00 | 0.00 | 37 | 1001.5 |
| 20260504201503 | 79 | 338 | 4.0 | 11.0 | 0.00 | 0.00 | 0.00 | 35 | 1001.6 |
| 20260504201004 | 80 | 347 | 4.0 | 11.0 | 0.00 | 0.00 | 0.00 | 35 | 1001.5 |
| 20260504200713 | 80 | 1 | 5.0 | 11.0 | 0.00 | 0.00 | 0.00 | 32 | 1001.5 |
| 20260504200212 | 80 | 348 | 4.0 | 11.0 | 0.00 | 0.00 | 0.00 | 33 | 1001.3 |
| 20260504195713 | 81 | 320 | 4.0 | 11.0 | 0.00 | 0.00 | 0.00 | 34 | 1001.3 |
| 20260504195003 | 80 | 328 | 3.0 | 10.0 | 0.00 | 0.00 | 0.00 | 35 | 1001.5 |
| 20260504194503 | 80 | 316 | 4.0 | 10.0 | 0.00 | 0.00 | 0.00 | 34 | 1001.3 |
| 20260504194003 | 80 | 314 | 4.0 | 13.0 | 0.00 | 0.00 | 0.00 | 34 | 1001.2 |
| 20260504193503 | 80 | 342 | 4.0 | 13.0 | 0.00 | 0.00 | 0.00 | 34 | 1001.2 |
| 20260504193003 | 80 | 338 | 4.0 | 12.0 | 0.00 | 0.00 | 0.00 | 35 | 1001.2 |
| 20260504192504 | 81 | 306 | 4.0 | 14.0 | 0.00 | 0.00 | 0.00 | 34 | 1001.1 |
| 20260504192003 | 81 | 301 | 4.0 | 14.0 | 0.00 | 0.00 | 0.00 | 37 | 1001.1 |
| 20260504191503 | 81 | 317 | 3.0 | 8.0 | 0.00 | 0.00 | 0.00 | 35 | 1001.1 |
| 20260504191003 | 81 | 307 | 4.0 | 11.0 | 0.00 | 0.00 | 0.00 | 35 | 1001.0 |
| 20260504190504 | 81 | 286 | 5.0 | 14.0 | 0.00 | 0.00 | 0.00 | 31 | 1001.1 |
| 20260504190214 | 81 | 295 | 5.0 | 14.0 | 0.00 | 0.00 | 0.00 | 33 | 1000.8 |
| 20260504185713 | 81 | 322 | 4.0 | 10.0 | 0.00 | 0.00 | 0.00 | 32 | 1001.0 |
| 20260504185003 | 81 | 333 | 4.0 | 15.0 | 0.00 | 0.00 | 0.00 | 34 | 1000.8 |
| 20260504184503 | 82 | 338 | 4.0 | 15.0 | 0.00 | 0.00 | 0.00 | 31 | 1000.8 |
| 20260504184214 | 82 | 326 | 4.0 | 11.0 | 0.00 | 0.00 | 0.00 | 32 | 1000.8 |
| 20260504183503 | 82 | 312 | 4.0 | 12.0 | 0.00 | 0.00 | 0.00 | 31 | 1000.7 |
| 20260504183003 | 82 | 295 | 4.0 | 17.0 | 0.00 | 0.00 | 0.00 | 29 | 1000.6 |
| 20260504182503 | 82 | 273 | 5.0 | 17.0 | 0.00 | 0.00 | 0.00 | 29 | 1000.7 |
| 20260504182003 | 82 | 281 | 4.0 | 14.0 | 0.00 | 0.00 | 0.00 | 28 | 1000.7 |
| 20260504181503 | 82 | 277 | 3.0 | 11.0 | 0.00 | 0.00 | 0.00 | 32 | 1000.7 |
| 20260504181003 | 81 | 275 | 4.0 | 12.0 | 0.00 | 0.00 | 0.00 | 35 | 1000.7 |
| 20260504180713 | 81 | 286 | 5.0 | 12.0 | 0.00 | 0.00 | 0.00 | 33 | 1000.8 |
| 20260504180003 | 81 | 300 | 4.0 | 11.0 | 0.00 | 0.00 | 0.00 | 33 | 1001.0 |
| 20260504175504 | 80 | 300 | 4.0 | 11.0 | 0.00 | 0.00 | 0.00 | 34 | 1001.0 |
| 20260504175004 | 81 | 297 | 4.0 | 11.0 | 0.00 | 0.00 | 0.00 | 29 | 1001.0 |
| 20260504174503 | 81 | 289 | 4.0 | 9.0 | 0.00 | 0.00 | 0.00 | 31 | 1001.0 |
| 20260504174003 | 80 | 292 | 4.0 | 14.0 | 0.00 | 0.00 | 0.00 | 32 | 1001.1 |
| 20260504173503 | 80 | 289 | 5.0 | 14.0 | 0.00 | 0.00 | 0.00 | 32 | 1001.1 |
| 20260504173003 | 80 | 279 | 4.0 | 14.0 | 0.00 | 0.00 | 0.00 | 36 | 1001.1 |
| 20260504172503 | 80 | 268 | 4.0 | 14.0 | 0.00 | 0.00 | 0.00 | 33 | 1001.1 |
| 20260504172003 | 80 | 272 | 5.0 | 15.0 | 0.00 | 0.00 | 0.00 | 32 | 1001.2 |
| 20260504171503 | 80 | 269 | 4.0 | 15.0 | 0.00 | 0.00 | 0.00 | 34 | 1001.0 |
| 20260504171003 | 80 | 279 | 3.0 | 11.0 | 0.00 | 0.00 | 0.00 | 33 | 1001.1 |
| 20260504170503 | 79 | 281 | 4.0 | 10.0 | 0.00 | 0.00 | 0.00 | 32 | 1001.1 |
| 20260504151003 | 69 | 256 | 3.0 | 8.0 | 0.00 | 0.00 | 0.00 | 48 | 1001.4 |
| 20260504150503 | 68 | 243 | 4.0 | 8.0 | 0.00 | 0.00 | 0.00 | 45 | 1001.5 |
| 20260504150212 | 68 | 247 | 3.0 | 8.0 | 0.00 | 0.00 | 0.00 | 46 | 1001.5 |
| 20260504141004 | 62 | 290 | 1.0 | 4.0 | 0.00 | 0.00 | 0.00 | 54 | 1001.8 |
| 20260504140713 | 61 | 288 | 2.0 | 7.0 | 0.00 | 0.00 | 0.00 | 54 | 1001.8 |
| 20260504140214 | 61 | 280 | 4.0 | 9.0 | 0.00 | 0.00 | 0.00 | 53 | 1001.8 |
| 20260504130503 | 55 | 0 | 0.0 | 0.0 | 0.00 | 0.00 | 0.00 | 67 | 1001.7 |
| 20260504110503 | 51 | 0 | 0.0 | 0.0 | 0.00 | 0.00 | 0.00 | 69 | 1001.7 |
| 20260504100503 | 52 | 0 | 0.0 | 0.0 | 0.00 | 0.00 | 0.00 | 65 | 1001.8 |
| 20260504081503 | 53 | 0 | 0.0 | 0.0 | 0.00 | 0.00 | 0.00 | 66 | 1003.2 |
| 20260504081003 | 53 | 199 | 0.0 | 2.0 | 0.00 | 0.00 | 0.00 | 66 | 1003.2 |
| 20260504080713 | 53 | 199 | 0.0 | 2.0 | 0.00 | 0.00 | 0.00 | 68 | 1003.2 |
| 20260504050503 | 57 | 0 | 0.0 | 0.0 | 0.00 | 0.00 | 0.00 | 61 | 1005.8 |
| 20260504050004 | 57 | 0 | 0.0 | 0.0 | 0.00 | 0.00 | 0.00 | 61 | 1005.8 |
| 20260504045714 | 57 | 0 | 0.0 | 0.0 | 0.00 | 0.00 | 0.00 | 61 | 1005.9 |
| 20260504045003 | 58 | 0 | 0.0 | 0.0 | 0.00 | 0.00 | 0.00 | 60 | 1005.9 |
| 20260504044504 | 58 | 0 | 0.0 | 1.0 | 0.00 | 0.00 | 0.00 | 60 | 1006.0 |
| 20260504044003 | 58 | 0 | 0.0 | 1.0 | 0.00 | 0.00 | 0.00 | 59 | 1006.0 |
| 20260504043503 | 58 | 0 | 0.0 | 0.0 | 0.00 | 0.00 | 0.00 | 58 | 1006.1 |
| 20260504043003 | 59 | 200 | 0.0 | 2.0 | 0.00 | 0.00 | 0.00 | 58 | 1006.1 |
| 20260504042714 | 59 | 200 | 0.0 | 2.0 | 0.00 | 0.00 | 0.00 | 58 | 1006.2 |
| 20260504042003 | 59 | 200 | 0.0 | 1.0 | 0.00 | 0.00 | 0.00 | 56 | 1006.2 |
| 20260504041503 | 59 | 0 | 0.0 | 0.0 | 0.00 | 0.00 | 0.00 | 54 | 1006.2 |
| 20260504041003 | 59 | 0 | 0.0 | 0.0 | 0.00 | 0.00 | 0.00 | 54 | 1006.2 |
| 20260504040713 | 60 | 0 | 0.0 | 0.0 | 0.00 | 0.00 | 0.00 | 54 | 1006.3 |
| 20260504040003 | 60 | 0 | 0.0 | 0.0 | 0.00 | 0.00 | 0.00 | 54 | 1006.4 |
| 20260504035714 | 60 | 0 | 0.0 | 0.0 | 0.00 | 0.00 | 0.00 | 55 | 1006.5 |
| 20260504035003 | 60 | 0 | 0.0 | 0.0 | 0.00 | 0.00 | 0.00 | 53 | 1006.5 |
| 20260504034713 | 61 | 0 | 0.0 | 0.0 | 0.00 | 0.00 | 0.00 | 53 | 1006.5 |
| 20260504034004 | 61 | 0 | 0.0 | 0.0 | 0.00 | 0.00 | 0.00 | 53 | 1006.6 |
| 20260504033713 | 61 | 0 | 0.0 | 0.0 | 0.00 | 0.00 | 0.00 | 52 | 1006.7 |
| 20260504033003 | 61 | 0 | 0.0 | 0.0 | 0.00 | 0.00 | 0.00 | 52 | 1006.6 |
| 20260504032503 | 61 | 0 | 0.0 | 0.0 | 0.00 | 0.00 | 0.00 | 52 | 1006.7 |
| 20260504032003 | 61 | 0 | 0.0 | 0.0 | 0.00 | 0.00 | 0.00 | 51 | 1006.7 |
| 20260504031503 | 61 | 0 | 0.0 | 0.0 | 0.00 | 0.00 | 0.00 | 50 | 1006.7 |
| 20260504031003 | 62 | 0 | 0.0 | 0.0 | 0.00 | 0.00 | 0.00 | 51 | 1006.8 |
| 20260504030503 | 62 | 0 | 0.0 | 0.0 | 0.00 | 0.00 | 0.00 | 50 | 1006.9 |
| 20260504030003 | 62 | 0 | 0.0 | 0.0 | 0.00 | 0.00 | 0.00 | 49 | 1006.9 |
| 20260504025503 | 62 | 0 | 0.0 | 0.0 | 0.00 | 0.00 | 0.00 | 48 | 1006.9 |
| 20260504025003 | 62 | 0 | 0.0 | 0.0 | 0.00 | 0.00 | 0.00 | 48 | 1006.9 |
| 20260504024503 | 62 | 0 | 0.0 | 0.0 | 0.00 | 0.00 | 0.00 | 48 | 1006.9 |
| 20260504024003 | 63 | 0 | 0.0 | 0.0 | 0.00 | 0.00 | 0.00 | 48 | 1006.9 |
| 20260504023503 | 63 | 0 | 0.0 | 0.0 | 0.00 | 0.00 | 0.00 | 48 | 1006.9 |